sat.trackr.live / text

‹ back to catalog

STARLINK-30224

NORAD 57416 · 2023-102N

PAYLOAD ACTIVE UNKNOWN

§ Identity

Operator
Country
US
Launch date
2023-07-20
Launch site
AFWTR
Launch vehicle
Mass (kg)
RCS (m²)

Purposes: comms

External: N2YO · Heavens-Above · Gunter

§ Orbital elements

Epoch: 2026-09-20T22:00:03.000096Z

Period
91.84 min
Inclination
42.9992°
Eccentricity
0.0001773
Mean motion
15.67896682 rev/d
Perigee alt
363.7 km
Apogee alt
366.1 km
Semi-major
6,743.1 km
B*
6.8284e-3
RAAN
217.9154°
Arg perigee
274.2374°
Mean anomaly
339.5333°
Rev number
574

§ Raw data

STARLINK-302241 57416U 23102N   26263.91670139  .00846725  00000+0  68284-2 0  99972 57416  42.9992 217.9154 0001773 274.2374 339.5333 15.67896682  5749

JSON: /api/v1/satellites/57416 · /tle

For live sub-satellite position, see the globe view (requires WebGL).

§ Visibility from observer

Set your observer location to see the next 7 days of passes ≥ 10°. The values pass through the URL so the page stays shareable.

No JS? Fill the form by hand. The geolocation button needs JavaScript.